Regional Weather Roundup
Issued by NWS

Home | Current Version | Previous Version | Text Only | Print | Product List | Glossary On
Versions: 1 2 3 4 5 6 7 8 9 10 11 12 13 14 15 16 17 18 19 20 21 22 23 24 25 26 27 28 29 30 31 32 33 34 35 36 37 38 39 40 41 42 43 44 45 46 47 48 49 50
000
ASUS43 KFSD 302302
RWRSD

WEATHER ROUNDUP FOR SOUTH DAKOTA
NATIONAL WEATHER SERVICE SIOUX FALLS SD
600 PM CDT THU MAR 30 2017

NOTE: "FAIR" INDICATES FEW OR NO CLOUDS BELOW 12,000 FEET WITH NO
SIGNIFICANT WEATHER AND/OR OBSTRUCTIONS TO VISIBILITY.


SDZ001>005-009-010-012>017-310000-
NORTHWEST AND NORTH CENTRAL SOUTH DAKOTA

CITY           SKY/WX    TMP DP  RH WIND       PRES   REMARKS
BUFFALO          N/A     58  37  45 SE14      29.66S
FAITH            N/A     49  37  63 SE12      29.75F
MOBRIDGE       PTSUNNY   51  34  52 S9        29.79R
$$

SDZ012>016-024>037-041>051-057-063-072>074-310000-
SOUTHWEST AND SOUTH CENTRAL SOUTH DAKOTA

CITY           SKY/WX    TMP DP  RH WIND       PRES   REMARKS
RAPID CTY ARPT CLOUDY    53  35  50 SE9       29.71S
PIERRE         CLOUDY    46  34  62 SE7       29.80S
CUSTER         CLOUDY    46  32  58 E10       29.73R
ELLSWORTH AFB  PTSUNNY   53  37  53 SE10      29.71S
PHILIP         PTSUNNY   49  37  63 E10       29.76S
PINE RIDGE     CLOUDY    57  34  41 E9        29.70S
SPEARFISH      FAIR      55  39  54 E10       29.70S
WINNER         CLOUDY    48  36  63 E9        29.79F
$$

SDZ004>011-016>023-039-040-310000-
NORTHEAST SOUTH DAKOTA

CITY           SKY/WX    TMP DP  RH WIND       PRES   REMARKS
ABERDEEN       CLOUDY    47  32  56 E8        29.85R
WATERTOWN      CLOUDY    44  35  70 NE9       29.82S
BROOKINGS      CLOUDY    44  36  73 NE10      29.80R
SISSETON         N/A     49  37  63 SE8       29.84S
$$

SDZ017-020-022-023-036>040-048>070-310000-
SOUTHEAST SOUTH DAKOTA

CITY           SKY/WX    TMP DP  RH WIND       PRES   REMARKS
SIOUX FALLS    CLOUDY    44  39  82 NE14      29.79S
HURON          CLOUDY    46  36  68 E9        29.82F
CHAMBERLAIN    CLOUDY    48  37  63 NE6       29.81S
MITCHELL       CLOUDY    47  36  65 NE12      29.82S
YANKTON        CLOUDY    45  37  76 N12       29.79R
$$

ABBREVIATIONS USED IN REMARKS
   TC - TEMPERATURE IN CELSIUS
  WCI - WIND CHILL INDEX
   HX - HEAT INDEX
  VSB - VISIBILITY





USA.gov is the U.S. government's official web portal to all federal, state and local government web resources and services.